This demonstration page uses our WeatherBlox Daily Observations layout. Learn more.

Hourly Observations for October 22, 2020

Temp ( °F °C ) Dew Point ( °F °C ) Humidity (%) Winds ( mph kmh ) Pressure ( in mb ) Visibility ( mi km ) Precip ( " mm )
12:54 am 00:54 Cloudy with Mist and Fog 47 8.3 44 6.7 90 90 ESE 10 17 29.98 1015 6 9.65604 0 0
1:54 am 01:54 Cloudy with Mist and Fog 47 8.3 44 6.7 90 90 E 7 11 29.95 1014 3 4.82802 0 0
2:54 am 02:54 Cloudy with Mist and Fog 47 8.3 45 7.2 93 93 E 8 13 29.93 1013 5 8.0467 0 0
3:51 am 03:51 Cloudy with Mist and Fog 46 8 45 7 93 93 E 9 15 29.92 1013 2.5 4.02335 0 0
3:54 am 03:54 Cloudy with Mist and Fog 47 8.3 45 7.2 93 93 ESE 8 13 29.9 1013 2 3.21868 0 0
4:06 am 04:06 Cloudy with Mist and Fog 47 8.3 45 7.2 93 93 ESE 8 13 29.91 1013 1.5 2.41401 0 0
4:54 am 04:54 Cloudy with Mist and Fog 47 8.3 45 7.2 93 93 E 7 11 29.87 1012 1.75 2.816345 0 0
5:02 am 05:02 Cloudy with Mist and Fog 47 8.3 45 7.2 93 93 E 8 13 29.88 1012 2 3.21868 0 0
5:15 am 05:15 Cloudy with Mist and Fog 47 8.3 45 7.2 93 93 ESE 7 11 29.87 1011 1.75 2.816345 0 0
5:54 am 05:54 Cloudy with Mist and Fog 47 8.3 46 7.8 97 97 E 7 11 29.85 1011 1.25 2.011675 0 0
6:35 am 06:35 Mostly Cloudy with Mist and Fog 48 8.9 46 7.8 93 93 E 6 9 29.85 1011 0.75 1.207005 0 0
6:44 am 06:44 Cloudy with Mist and Fog 48 8.9 46 7.8 93 93 ENE 8 13 29.85 1011 1 1.60934 0 0
6:54 am 06:54 Cloudy with Mist and Fog 48 8.9 46 7.8 93 93 ENE 6 9 29.83 1010 1 1.60934 0 0
7:54 am 07:54 Cloudy with Mist and Fog 48 8.9 46 7.8 93 93 NNE 8 13 29.83 1010 1.25 2.011675 0 0
8:54 am 08:54 Cloudy with Mist and Fog 48 8.9 46 7.8 93 93 NE 6 9 29.83 1010 1.75 2.816345 0 0
9:54 am 09:54 Cloudy with Mist and Fog 47 8.3 45 7.2 93 93 NNE 9 15 29.83 1010 1.5 2.41401 0 0
10:54 am 10:54 Cloudy with Mist and Fog 47 8.3 44 6.7 90 90 N 13 20 29.83 1010 1.75 2.816345 0 0
11:54 am 11:54 Cloudy with Mist and Fog 47 8.3 44 6.7 90 90 NNE 15 24 29.84 1011 1.75 2.816345 0 0
11:56 am 11:56 Cloudy with Mist and Fog 47 8.3 44 6.7 90 90 NNE 14 22 29.86 1011 2 3.21868 0 0
12:25 pm 12:25 Cloudy with Mist and Fog 44 6.7 42 5.6 93 93 N 15 24 29.88 1012 1.75 2.816345 0 0
12:33 pm 12:33 Cloudy with Mist and Fog 44 6.7 42 5.6 93 93 N 17 28 29.88 1012 2.5 4.02335 0 0
12:40 pm 12:40 Cloudy with Mist and Fog 44 6.7 41 5 89 89 N 16 26 29.88 1012 4 6.43736 0 0
12:54 pm 12:54 Cloudy with Mist and Fog 44 6.7 42 5.6 93 93 N 16 26 29.86 1011 2.5 4.02335 0 0
1:54 pm 13:54 Cloudy with Light Rain 42 5.6 39 3.9 89 89 N 17 28 29.87 1011 2 3.21868 0.01 0.254
2:06 pm 14:06 Cloudy with Mist and Fog 42 5.6 39 3.9 89 89 N 17 28 29.88 1012 4 6.43736 0.001 0.001
2:54 pm 14:54 Cloudy with Mist and Fog 42 5.6 39 3.9 89 89 NNW 20 31 29.88 1012 3 4.82802 0.001 0.001
3:54 pm 15:54 Cloudy 42 5.6 39 3.9 89 89 N 20 31 29.91 1013 10 16.0934 0 0
4:54 pm 16:54 Cloudy 41 5 38 3.3 89 89 N 22 35 29.95 1014 10 16.0934 0 0
5:54 pm 17:54 Cloudy 40 4.4 36 2.2 86 86 N 23 37 29.98 1015 10 16.0934 0 0
6:14 pm 18:14 Cloudy 40 4.4 35 1.7 83 83 N 24 39 30.02 1017 10 16.0934 0 0
6:54 pm 18:54 Cloudy 39 3.9 35 1.7 86 86 N 21 33 30.01 1016 10 16.0934 0 0
7:12 pm 19:12 Cloudy 39 3.9 35 1.7 86 86 N 18 30 30.04 1017 10 16.0934 0 0
7:42 pm 19:42 Cloudy 38 3.3 34 1.1 86 86 N 21 33 30.07 1018 10 16.0934 0 0
7:54 pm 19:54 Cloudy 38 3.3 34 1.1 86 86 N 16 26 30.04 1017 10 16.0934 0 0
8:54 pm 20:54 Cloudy 37 2.8 33 0.6 86 86 N 20 31 30.08 1019 10 16.0934 0.001 0.001
9:54 pm 21:54 Cloudy 37 2.8 33 0.6 86 86 N 23 37 30.12 1020 10 16.0934 0.01 0.254
10:14 pm 22:14 Cloudy 37 2.8 33 0.6 86 86 N 22 35 30.17 1022 10 16.0934 0 0
10:54 pm 22:54 Cloudy 37 2.8 32 0 82 82 N 21 33 30.14 1021 10 16.0934 0 0
11:54 pm 23:54 Cloudy 36 2.2 32 0 86 86 N 21 33 30.15 1021 10 16.0934 0 0

Powered by AerisWeather